Precipitable_Water
0.61 0.62 0.65 0.70 0.74 0.76 0.74 0.74 0.74 0.76 0.77 0.76 0.74 0.73 0.69 0.67 0.63 0.61 0.59 0.57 0.55 0.53 0.51 0.51 0.52 0.51 0.48 0.46 0.44 0.44 0.45 0.38 0.37 0.33 0.26 0.36 0.50 0.55 0.50 0.41 0.37 0.41 0.38 0.31 0.27 0.24 0.19 0.21 0.21 0.23 0.25 0.26 0.25 0.22 0.26 0.25 0.27 0.25 0.16 0.15 0.12 0.16 0.14 0.20 0.16 0.16 0.18 0.17 0.18 0.19 0.18 0.15 0.14 0.17 0.18 0.20 0.19 0.20 0.20 0.20 0.25 0.32 0.36 0.44 0.47 0.54 0.61 0.68
0.61 0.59 0.62 0.67 0.71 0.74 0.73 0.74 0.76 0.76 0.78 0.76 0.74 0.70 0.69 0.65 0.62 0.58 0.56 0.55 0.53 0.51 0.51 0.53 0.52 0.51 0.50 0.47 0.44 0.44 0.42 0.35 0.31 0.32 0.30 0.57 0.54 0.46 0.43 0.39 0.38 0.37 0.35 0.27 0.24 0.23 0.20 0.19 0.20 0.22 0.20 0.20 0.29 0.21 0.26 0.19 0.27 0.17 0.14 0.13 0.12 0.18 0.20 0.22 0.21 0.20 0.18 0.16 0.18 0.18 0.17 0.15 0.14 0.15 0.17 0.14 0.15 0.17 0.17 0.18 0.21 0.25 0.37 0.47 0.51 0.55 0.58 0.63
0.61 0.59 0.59 0.63 0.67 0.71 0.73 0.73 0.73 0.74 0.72 0.70 0.68 0.67 0.66 0.64 0.61 0.57 0.54 0.53 0.51 0.51 0.51 0.52 0.52 0.51 0.48 0.47 0.44 0.44 0.38 0.32 0.29 0.25 0.38 0.54 0.50 0.43 0.39 0.37 0.36 0.36 0.29 0.24 0.31 0.28 0.23 0.21 0.21 0.21 0.19 0.20 0.21 0.20 0.22 0.20 0.20 0.20 0.16 0.11 0.13 0.22 0.23 0.23 0.23 0.21 0.21 0.19 0.16 0.15 0.16 0.16 0.17 0.17 0.20 0.14 0.14 0.16 0.14 0.16 0.19 0.19 0.25 0.36 0.46 0.52 0.55 0.57
0.62 0.60 0.59 0.61 0.64 0.68 0.71 0.71 0.71 0.69 0.67 0.65 0.63 0.62 0.61 0.60 0.58 0.56 0.53 0.51 0.51 0.50 0.50 0.51 0.52 0.50 0.48 0.45 0.45 0.47 0.33 0.28 0.21 0.29 0.48 0.51 0.43 0.38 0.36 0.35 0.36 0.34 0.34 0.32 0.34 0.29 0.28 0.25 0.20 0.21 0.20 0.19 0.20 0.23 0.17 0.22 0.15 0.20 0.16 0.15 0.17 0.22 0.21 0.24 0.23 0.22 0.21 0.20 0.15 0.15 0.16 0.15 0.17 0.19 0.18 0.15 0.14 0.15 0.16 0.19 0.18 0.17 0.21 0.32 0.42 0.47 0.51 0.51
0.62 0.60 0.59 0.59 0.62 0.65 0.68 0.68 0.67 0.65 0.63 0.62 0.60 0.57 0.56 0.56 0.55 0.54 0.52 0.51 0.51 0.50 0.50 0.51 0.51 0.50 0.46 0.46 0.43 0.46 0.33 0.16 0.21 0.38 0.49 0.44 0.40 0.36 0.34 0.34 0.35 0.32 0.30 0.28 0.26 0.26 0.24 0.20 0.19 0.20 0.17 0.15 0.19 0.19 0.18 0.22 0.20 0.20 0.16 0.20 0.22 0.23 0.20 0.24 0.23 0.23 0.21 0.20 0.16 0.15 0.13 0.14 0.19 0.19 0.18 0.16 0.12 0.14 0.17 0.20 0.21 0.21 0.23 0.30 0.36 0.42 0.47 0.46
0.62 0.60 0.58 0.59 0.61 0.63 0.66 0.66 0.63 0.61 0.59 0.58 0.57 0.56 0.55 0.54 0.53 0.52 0.51 0.51 0.50 0.50 0.49 0.51 0.51 0.47 0.47 0.45 0.41 0.39 0.27 0.11 0.36 0.42 0.48 0.43 0.40 0.36 0.34 0.35 0.36 0.33 0.30 0.25 0.22 0.22 0.21 0.18 0.18 0.16 0.15 0.15 0.17 0.14 0.17 0.21 0.21 0.15 0.17 0.19 0.22 0.22 0.20 0.24 0.22 0.20 0.18 0.16 0.16 0.14 0.16 0.17 0.16 0.17 0.19 0.17 0.15 0.18 0.23 0.25 0.24 0.24 0.25 0.30 0.39 0.42 0.41 0.42
0.61 0.60 0.58 0.58 0.60 0.64 0.67 0.66 0.62 0.59 0.58 0.57 0.56 0.56 0.55 0.54 0.52 0.51 0.50 0.50 0.50 0.50 0.50 0.50 0.51 0.50 0.45 0.45 0.43 0.34 0.22 0.30 0.38 0.46 0.47 0.42 0.39 0.38 0.36 0.37 0.39 0.33 0.28 0.22 0.22 0.19 0.18 0.17 0.16 0.15 0.15 0.14 0.17 0.16 0.17 0.17 0.20 0.17 0.16 0.18 0.18 0.20 0.18 0.21 0.19 0.19 0.18 0.16 0.15 0.18 0.19 0.15 0.16 0.13 0.19 0.17 0.18 0.20 0.25 0.26 0.26 0.27 0.28 0.33 0.36 0.38 0.35 0.36
0.60 0.60 0.58 0.57 0.59 0.63 0.67 0.66 0.63 0.60 0.59 0.58 0.56 0.56 0.55 0.54 0.53 0.51 0.50 0.49 0.49 0.49 0.51 0.50 0.51 0.50 0.47 0.39 0.23 0.21 0.21 0.25 0.44 0.49 0.46 0.43 0.40 0.39 0.39 0.37 0.35 0.32 0.26 0.22 0.22 0.20 0.20 0.16 0.14 0.16 0.15 0.13 0.16 0.15 0.18 0.16 0.17 0.14 0.14 0.18 0.18 0.18 0.17 0.17 0.17 0.16 0.16 0.16 0.18 0.18 0.16 0.16 0.17 0.16 0.19 0.17 0.19 0.20 0.21 0.25 0.26 0.27 0.28 0.31 0.33 0.35 0.36 0.36
0.60 0.59 0.58 0.56 0.57 0.61 0.65 0.67 0.63 0.61 0.59 0.59 0.57 0.57 0.57 0.55 0.53 0.52 0.50 0.50 0.49 0.49 0.49 0.51 0.51 0.51 0.51 0.39 0.24 0.21 0.18 0.39 0.52 0.48 0.46 0.39 0.38 0.39 0.40 0.33 0.35 0.29 0.27 0.26 0.26 0.24 0.20 0.18 0.17 0.17 0.15 0.14 0.17 0.16 0.17 0.14 0.12 0.14 0.14 0.17 0.17 0.16 0.17 0.16 0.15 0.15 0.15 0.16 0.17 0.16 0.15 0.17 0.18 0.20 0.16 0.18 0.20 0.22 0.24 0.23 0.24 0.25 0.26 0.28 0.30 0.33 0.34 0.34
0.60 0.59 0.57 0.56 0.55 0.58 0.62 0.64 0.63 0.61 0.59 0.59 0.57 0.56 0.56 0.56 0.54 0.52 0.50 0.50 0.49 0.49 0.49 0.50 0.53 0.52 0.41 0.27 0.27 0.17 0.34 0.52 0.52 0.46 0.44 0.41 0.39 0.37 0.37 0.37 0.34 0.30 0.26 0.25 0.25 0.23 0.20 0.21 0.21 0.21 0.20 0.17 0.19 0.16 0.17 0.13 0.14 0.16 0.16 0.17 0.16 0.16 0.15 0.16 0.13 0.14 0.15 0.15 0.17 0.14 0.14 0.16 0.20 0.17 0.12 0.18 0.19 0.22 0.23 0.23 0.25 0.24 0.23 0.25 0.28 0.31 0.33 0.33
0.60 0.58 0.57 0.55 0.55 0.56 0.59 0.63 0.63 0.61 0.60 0.59 0.57 0.56 0.56 0.55 0.54 0.52 0.51 0.49 0.49 0.48 0.49 0.49 0.54 0.49 0.35 0.28 0.22 0.16 0.58 0.50 0.49 0.45 0.44 0.43 0.39 0.35 0.34 0.34 0.35 0.31 0.29 0.26 0.24 0.26 0.26 0.26 0.26 0.24 0.20 0.18 0.18 0.18 0.17 0.15 0.20 0.18 0.16 0.16 0.15 0.15 0.15 0.16 0.15 0.14 0.16 0.14 0.17 0.16 0.15 0.17 0.19 0.17 0.12 0.15 0.20 0.21 0.20 0.21 0.22 0.23 0.23 0.24 0.25 0.27 0.30 0.31
0.61 0.58 0.56 0.55 0.54 0.55 0.58 0.61 0.62 0.61 0.60 0.58 0.57 0.56 0.55 0.53 0.53 0.52 0.50 0.49 0.48 0.50 0.49 0.50 0.52 0.49 0.39 0.28 0.21 0.24 0.54 0.51 0.48 0.44 0.42 0.43 0.38 0.37 0.37 0.36 0.35 0.33 0.29 0.23 0.24 0.26 0.27 0.27 0.26 0.21 0.15 0.22 0.16 0.19 0.17 0.20 0.19 0.19 0.18 0.13 0.14 0.15 0.13 0.15 0.13 0.15 0.16 0.14 0.18 0.19 0.14 0.12 0.14 0.11 0.15 0.18 0.20 0.20 0.20 0.20 0.21 0.21 0.22 0.23 0.25 0.26 0.28 0.28
0.61 0.58 0.56 0.54 0.54 0.55 0.57 0.59 0.61 0.62 0.60 0.59 0.58 0.57 0.55 0.54 0.52 0.52 0.50 0.49 0.49 0.49 0.48 0.51 0.51 0.51 0.33 0.18 0.22 0.42 0.53 0.51 0.46 0.44 0.42 0.44 0.42 0.42 0.40 0.39 0.37 0.35 0.32 0.28 0.25 0.25 0.27 0.29 0.26 0.19 0.22 0.20 0.18 0.13 0.20 0.22 0.18 0.18 0.17 0.15 0.14 0.15 0.13 0.16 0.16 0.17 0.15 0.16 0.19 0.17 0.07 0.08 0.11 0.12 0.19 0.21 0.21 0.20 0.19 0.19 0.20 0.20 0.21 0.22 0.23 0.24 0.26 0.29
0.60 0.59 0.56 0.55 0.54 0.55 0.56 0.57 0.60 0.62 0.61 0.59 0.58 0.57 0.55 0.54 0.52 0.51 0.50 0.48 0.51 0.49 0.50 0.49 0.51 0.41 0.29 0.19 0.38 0.44 0.50 0.49 0.46 0.41 0.40 0.43 0.39 0.37 0.40 0.39 0.38 0.35 0.35 0.30 0.27 0.27 0.27 0.30 0.27 0.24 0.28 0.20 0.17 0.24 0.19 0.19 0.19 0.12 0.15 0.16 0.12 0.10 0.10 0.17 0.17 0.18 0.14 0.19 0.19 0.18 0.08 0.08 0.11 0.16 0.20 0.23 0.23 0.20 0.18 0.18 0.19 0.20 0.21 0.22 0.23 0.23 0.24 0.26
0.60 0.57 0.56 0.55 0.55 0.55 0.56 0.59 0.60 0.62 0.62 0.61 0.58 0.57 0.55 0.53 0.52 0.50 0.51 0.49 0.52 0.54 0.52 0.52 0.49 0.33 0.22 0.26 0.44 0.52 0.49 0.46 0.38 0.37 0.41 0.39 0.34 0.33 0.34 0.36 0.35 0.35 0.33 0.31 0.27 0.29 0.30 0.28 0.24 0.21 0.20 0.26 0.24 0.20 0.15 0.15 0.16 0.16 0.11 0.09 0.13 0.10 0.13 0.17 0.21 0.20 0.14 0.19 0.20 0.15 0.09 0.08 0.12 0.16 0.19 0.21 0.23 0.22 0.20 0.20 0.20 0.20 0.21 0.22 0.23 0.24 0.24 0.25
0.60 0.58 0.58 0.58 0.57 0.57 0.57 0.58 0.60 0.62 0.61 0.60 0.58 0.56 0.55 0.54 0.51 0.50 0.51 0.51 0.51 0.54 0.55 0.37 0.38 0.35 0.22 0.18 0.33 0.54 0.39 0.29 0.30 0.40 0.42 0.41 0.38 0.31 0.35 0.35 0.36 0.35 0.34 0.31 0.33 0.32 0.30 0.28 0.21 0.21 0.21 0.23 0.20 0.16 0.14 0.12 0.14 0.16 0.11 0.12 0.10 0.11 0.12 0.15 0.20 0.23 0.22 0.20 0.21 0.16 0.09 0.12 0.14 0.19 0.21 0.24 0.23 0.23 0.21 0.21 0.22 0.22 0.22 0.22 0.23 0.23 0.24 0.24
0.61 0.60 0.60 0.61 0.59 0.59 0.59 0.59 0.59 0.60 0.61 0.60 0.59 0.56 0.55 0.54 0.54 0.53 0.54 0.57 0.53 0.53 0.49 0.33 0.38 0.34 0.19 0.32 0.49 0.33 0.27 0.32 0.41 0.37 0.39 0.43 0.38 0.35 0.35 0.33 0.32 0.32 0.35 0.34 0.33 0.30 0.28 0.24 0.25 0.23 0.23 0.18 0.19 0.17 0.12 0.11 0.11 0.12 0.15 0.11 0.15 0.12 0.14 0.12 0.20 0.23 0.23 0.20 0.16 0.19 0.13 0.12 0.13 0.17 0.20 0.23 0.24 0.23 0.21 0.21 0.21 0.21 0.22 0.22 0.22 0.22 0.22 0.22
0.64 0.62 0.61 0.59 0.59 0.59 0.59 0.57 0.59 0.58 0.60 0.59 0.58 0.55 0.51 0.55 0.59 0.59 0.58 0.54 0.52 0.48 0.45 0.48 0.39 0.24 0.19 0.32 0.25 0.25 0.34 0.33 0.34 0.35 0.39 0.43 0.40 0.37 0.35 0.30 0.32 0.32 0.32 0.29 0.31 0.25 0.26 0.22 0.23 0.17 0.17 0.17 0.18 0.17 0.11 0.09 0.10 0.11 0.12 0.11 0.11 0.15 0.17 0.16 0.16 0.21 0.22 0.22 0.17 0.17 0.15 0.14 0.14 0.16 0.17 0.20 0.22 0.21 0.20 0.20 0.19 0.19 0.20 0.20 0.21 0.21 0.21 0.21
0.69 0.65 0.62 0.61 0.60 0.59 0.58 0.59 0.56 0.58 0.58 0.59 0.58 0.60 0.59 0.61 0.62 0.62 0.50 0.45 0.30 0.23 0.20 0.24 0.22 0.14 0.13 0.19 0.33 0.36 0.35 0.39 0.39 0.35 0.32 0.37 0.38 0.39 0.37 0.36 0.33 0.28 0.25 0.23 0.24 0.25 0.25 0.23 0.22 0.17 0.13 0.14 0.14 0.16 0.13 0.19 0.19 0.18 0.17 0.16 0.16 0.14 0.17 0.16 0.20 0.23 0.22 0.19 0.16 0.16 0.13 0.13 0.14 0.14 0.16 0.18 0.20 0.19 0.19 0.19 0.19 0.19 0.19 0.19 0.20 0.20 0.20 0.20
0.74 0.71 0.67 0.65 0.63 0.62 0.60 0.60 0.58 0.58 0.59 0.55 0.52 0.50 0.45 0.33 0.32 0.32 0.44 0.37 0.28 0.24 0.29 0.25 0.25 0.28 0.29 0.29 0.29 0.41 0.46 0.43 0.27 0.31 0.35 0.39 0.36 0.33 0.32 0.32 0.29 0.29 0.23 0.19 0.22 0.24 0.27 0.17 0.13 0.13 0.13 0.14 0.16 0.19 0.18 0.22 0.22 0.21 0.20 0.19 0.18 0.17 0.18 0.21 0.21 0.24 0.25 0.18 0.16 0.16 0.15 0.14 0.13 0.13 0.13 0.15 0.17 0.17 0.17 0.16 0.16 0.17 0.17 0.17 0.18 0.18 0.18 0.19
0.78 0.76 0.73 0.69 0.66 0.64 0.63 0.62 0.60 0.59 0.60 0.55 0.51 0.37 0.22 0.25 0.22 0.22 0.31 0.31 0.33 0.31 0.32 0.30 0.27 0.26 0.29 0.35 0.36 0.34 0.27 0.28 0.32 0.29 0.33 0.43 0.38 0.31 0.27 0.29 0.24 0.20 0.22 0.23 0.21 0.30 0.25 0.17 0.15 0.16 0.18 0.19 0.18 0.19 0.20 0.21 0.22 0.20 0.20 0.19 0.17 0.18 0.16 0.21 0.20 0.24 0.25 0.17 0.14 0.16 0.14 0.12 0.12 0.13 0.13 0.14 0.15 0.14 0.15 0.15 0.15 0.15 0.16 0.17 0.17 0.17 0.17 0.17
0.84 0.80 0.77 0.75 0.71 0.68 0.66 0.64 0.63 0.61 0.60 0.55 0.46 0.36 0.33 0.31 0.41 0.49 0.32 0.21 0.26 0.33 0.34 0.34 0.34 0.30 0.39 0.39 0.40 0.41 0.35 0.25 0.25 0.29 0.37 0.36 0.33 0.24 0.27 0.26 0.20 0.17 0.25 0.24 0.24 0.22 0.19 0.15 0.17 0.19 0.24 0.24 0.23 0.21 0.21 0.20 0.19 0.20 0.19 0.18 0.17 0.18 0.20 0.23 0.23 0.25 0.24 0.18 0.13 0.14 0.12 0.10 0.11 0.13 0.14 0.14 0.14 0.14 0.14 0.14 0.14 0.14 0.14 0.15 0.16 0.16 0.16 0.18
0.94 0.87 0.82 0.80 0.76 0.73 0.70 0.68 0.64 0.62 0.54 0.44 0.38 0.38 0.36 0.41 0.52 0.55 0.42 0.24 0.21 0.31 0.31 0.30 0.27 0.28 0.30 0.38 0.40 0.42 0.24 0.20 0.19 0.27 0.30 0.34 0.29 0.27 0.27 0.23 0.20 0.21 0.24 0.24 0.18 0.18 0.15 0.17 0.20 0.25 0.25 0.22 0.22 0.23 0.21 0.20 0.18 0.17 0.17 0.16 0.15 0.20 0.17 0.14 0.20 0.21 0.21 0.18 0.14 0.15 0.12 0.10 0.12 0.13 0.12 0.12 0.13 0.14 0.15 0.16 0.15 0.15 0.15 0.14 0.14 0.15 0.15 0.16
1.01 0.97 0.91 0.84 0.82 0.78 0.75 0.69 0.68 0.55 0.48 0.46 0.44 0.42 0.48 0.52 0.53 0.49 0.34 0.21 0.20 0.24 0.28 0.30 0.31 0.29 0.27 0.26 0.37 0.34 0.24 0.23 0.23 0.23 0.36 0.32 0.24 0.32 0.27 0.25 0.21 0.22 0.21 0.24 0.22 0.18 0.15 0.20 0.24 0.26 0.26 0.23 0.21 0.22 0.21 0.19 0.16 0.18 0.16 0.15 0.14 0.15 0.17 0.16 0.17 0.19 0.20 0.19 0.19 0.16 0.12 0.09 0.09 0.09 0.10 0.12 0.16 0.17 0.18 0.19 0.18 0.18 0.18 0.17 0.17 0.17 0.17 0.16
1.06 1.02 0.98 0.94 0.85 0.83 0.76 0.73 0.56 0.48 0.53 0.45 0.43 0.53 0.52 0.53 0.48 0.48 0.28 0.23 0.23 0.24 0.33 0.30 0.33 0.31 0.31 0.43 0.41 0.30 0.29 0.30 0.28 0.30 0.33 0.32 0.27 0.27 0.26 0.29 0.26 0.21 0.22 0.23 0.23 0.20 0.19 0.24 0.25 0.22 0.23 0.23 0.21 0.20 0.20 0.20 0.16 0.16 0.18 0.16 0.15 0.17 0.17 0.19 0.19 0.15 0.13 0.11 0.19 0.15 0.08 0.07 0.10 0.11 0.10 0.12 0.13 0.13 0.15 0.15 0.15 0.15 0.16 0.17 0.16 0.16 0.18 0.19
1.07 1.05 1.03 1.00 0.96 0.86 0.82 0.58 0.52 0.59 0.45 0.35 0.43 0.55 0.51 0.54 0.53 0.40 0.28 0.19 0.15 0.23 0.26 0.18 0.30 0.25 0.38 0.28 0.34 0.32 0.31 0.23 0.37 0.35 0.34 0.37 0.39 0.31 0.29 0.26 0.26 0.20 0.24 0.24 0.22 0.21 0.21 0.26 0.26 0.22 0.20 0.20 0.20 0.19 0.21 0.20 0.16 0.14 0.14 0.20 0.19 0.19 0.19 0.19 0.16 0.14 0.10 0.07 0.17 0.22 0.10 0.07 0.09 0.08 0.08 0.09 0.10 0.11 0.13 0.13 0.14 0.15 0.16 0.16 0.15 0.16 0.18 0.19
1.14 1.09 1.05 1.02 1.02 0.96 0.65 0.51 0.73 0.59 0.40 0.39 0.53 0.58 0.51 0.49 0.63 0.43 0.20 0.16 0.13 0.22 0.20 0.29 0.23 0.29 0.33 0.31 0.30 0.29 0.14 0.19 0.40 0.39 0.34 0.40 0.31 0.38 0.25 0.23 0.24 0.27 0.28 0.28 0.21 0.18 0.24 0.24 0.24 0.24 0.22 0.20 0.19 0.16 0.20 0.19 0.15 0.12 0.22 0.24 0.22 0.20 0.19 0.19 0.17 0.15 0.12 0.18 0.18 0.18 0.15 0.09 0.07 0.07 0.10 0.10 0.11 0.11 0.11 0.11 0.12 0.12 0.14 0.14 0.15 0.18 0.20 0.21
1.11 1.14 1.09 1.04 1.01 0.99 0.81 0.81 0.68 0.54 0.51 0.57 0.61 0.56 0.52 0.51 0.54 0.41 0.19 0.10 0.09 0.24 0.19 0.25 0.26 0.44 0.32 0.32 0.32 0.21 0.23 0.33 0.21 0.31 0.39 0.41 0.37 0.31 0.25 0.24 0.20 0.22 0.26 0.23 0.13 0.28 0.23 0.21 0.21 0.20 0.20 0.19 0.17 0.18 0.23 0.21 0.16 0.21 0.27 0.26 0.21 0.20 0.20 0.19 0.16 0.15 0.16 0.14 0.09 0.13 0.19 0.10 0.09 0.08 0.12 0.12 0.09 0.09 0.10 0.11 0.12 0.12 0.13 0.15 0.17 0.19 0.20 0.20
1.06 1.12 1.16 1.10 1.03 1.02 1.02 0.87 0.76 0.61 0.71 0.72 0.64 0.55 0.51 0.58 0.41 0.21 0.16 0.09 0.29 0.19 0.39 0.21 0.42 0.35 0.31 0.32 0.26 0.27 0.25 0.30 0.18 0.32 0.39 0.41 0.39 0.32 0.20 0.25 0.25 0.24 0.29 0.25 0.17 0.26 0.28 0.26 0.25 0.23 0.20 0.17 0.22 0.25 0.25 0.23 0.16 0.24 0.29 0.29 0.26 0.24 0.21 0.20 0.16 0.15 0.15 0.13 0.08 0.11 0.14 0.08 0.07 0.08 0.09 0.11 0.09 0.09 0.10 0.11 0.13 0.14 0.15 0.16 0.16 0.18 0.20 0.22
1.02 1.07 1.13 1.17 1.07 0.95 0.92 0.94 0.81 0.89 0.86 0.76 0.67 0.60 0.58 0.45 0.29 0.17 0.12 0.08 0.26 0.17 0.25 0.28 0.25 0.24 0.28 0.22 0.22 0.26 0.22 0.26 0.30 0.34 0.36 0.31 0.34 0.34 0.30 0.34 0.25 0.23 0.23 0.28 0.25 0.30 0.33 0.35 0.34 0.27 0.20 0.21 0.23 0.27 0.27 0.25 0.23 0.29 0.26 0.21 0.21 0.20 0.21 0.19 0.18 0.16 0.12 0.08 0.08 0.11 0.13 0.10 0.06 0.08 0.08 0.08 0.08 0.10 0.11 0.13 0.15 0.18 0.19 0.18 0.17 0.19 0.21 0.22
0.98 1.03 1.11 1.15 1.00 0.96 0.88 0.72 0.85 0.95 0.90 0.80 0.69 0.61 0.51 0.36 0.20 0.14 0.09 0.11 0.24 0.25 0.28 0.25 0.24 0.30 0.23 0.19 0.17 0.24 0.24 0.26 0.27 0.28 0.26 0.32 0.29 0.30 0.28 0.24 0.32 0.24 0.23 0.23 0.22 0.25 0.28 0.29 0.27 0.29 0.31 0.29 0.28 0.23 0.29 0.29 0.28 0.25 0.20 0.19 0.19 0.17 0.20 0.17 0.16 0.17 0.09 0.07 0.14 0.15 0.14 0.14 0.07 0.08 0.10 0.11 0.12 0.13 0.13 0.13 0.14 0.16 0.17 0.18 0.18 0.20 0.22 0.23
0.99 0.99 1.03 1.13 1.14 1.13 0.81 0.70 0.91 0.99 0.90 0.79 0.68 0.51 0.40 0.24 0.26 0.14 0.11 0.23 0.15 0.22 0.21 0.21 0.27 0.25 0.22 0.22 0.20 0.19 0.19 0.25 0.27 0.25 0.22 0.23 0.22 0.20 0.21 0.16 0.21 0.16 0.15 0.16 0.16 0.24 0.20 0.21 0.26 0.28 0.33 0.28 0.24 0.21 0.24 0.28 0.28 0.24 0.20 0.18 0.11 0.10 0.12 0.09 0.13 0.09 0.08 0.07 0.14 0.17 0.17 0.13 0.10 0.10 0.11 0.13 0.13 0.14 0.16 0.16 0.17 0.18 0.19 0.19 0.20 0.22 0.23 0.25
0.97 0.97 1.02 1.09 1.14 1.08 1.05 1.03 1.00 0.98 0.95 0.77 0.56 0.50 0.32 0.25 0.18 0.20 0.18 0.18 0.14 0.26 0.22 0.27 0.24 0.24 0.23 0.21 0.19 0.21 0.25 0.17 0.26 0.23 0.23 0.24 0.20 0.20 0.22 0.20 0.22 0.16 0.10 0.16 0.16 0.17 0.18 0.25 0.25 0.25 0.27 0.31 0.26 0.16 0.19 0.19 0.22 0.20 0.15 0.13 0.10 0.08 0.08 0.07 0.09 0.12 0.11 0.13 0.17 0.16 0.20 0.11 0.11 0.14 0.16 0.13 0.12 0.15 0.16 0.18 0.18 0.20 0.19 0.20 0.22 0.24 0.24 0.24
0.92 0.95 0.92 1.01 1.05 1.08 1.13 1.12 1.04 1.00 0.88 0.68 0.48 0.38 0.32 0.23 0.20 0.26 0.24 0.24 0.26 0.32 0.30 0.25 0.26 0.27 0.25 0.19 0.19 0.22 0.18 0.24 0.23 0.22 0.22 0.20 0.20 0.17 0.19 0.22 0.24 0.20 0.15 0.19 0.14 0.15 0.11 0.13 0.19 0.22 0.17 0.27 0.24 0.19 0.17 0.15 0.18 0.17 0.19 0.14 0.11 0.09 0.07 0.06 0.07 0.07 0.07 0.08 0.15 0.20 0.13 0.09 0.09 0.09 0.18 0.19 0.19 0.18 0.19 0.19 0.21 0.21 0.22 0.23 0.24 0.23 0.23 0.24
0.92 0.92 0.92 0.97 1.02 1.07 1.11 1.15 1.12 1.00 0.87 0.56 0.43 0.32 0.24 0.21 0.24 0.23 0.24 0.29 0.34 0.36 0.30 0.32 0.26 0.24 0.23 0.24 0.25 0.24 0.22 0.19 0.25 0.23 0.21 0.18 0.16 0.16 0.16 0.17 0.23 0.23 0.19 0.13 0.16 0.17 0.12 0.12 0.22 0.24 0.23 0.24 0.19 0.23 0.22 0.19 0.18 0.20 0.21 0.20 0.14 0.10 0.13 0.08 0.12 0.10 0.10 0.10 0.11 0.14 0.12 0.13 0.12 0.18 0.19 0.20 0.19 0.17 0.17 0.17 0.17 0.19 0.21 0.23 0.21 0.20 0.21 0.22
0.83 0.86 0.91 0.86 0.93 1.01 1.04 1.13 1.14 1.07 0.84 0.51 0.35 0.28 0.24 0.24 0.23 0.29 0.26 0.36 0.37 0.33 0.34 0.34 0.30 0.24 0.22 0.22 0.26 0.23 0.29 0.21 0.24 0.23 0.21 0.19 0.18 0.15 0.18 0.18 0.18 0.20 0.17 0.12 0.17 0.13 0.15 0.12 0.23 0.27 0.27 0.24 0.22 0.24 0.22 0.21 0.10 0.16 0.19 0.13 0.13 0.22 0.15 0.12 0.12 0.15 0.14 0.11 0.08 0.13 0.12 0.13 0.17 0.16 0.17 0.18 0.18 0.16 0.16 0.14 0.14 0.15 0.17 0.18 0.17 0.19 0.20 0.20
0.68 0.77 0.74 0.82 0.88 1.03 1.05 1.10 1.10 1.00 0.88 0.54 0.34 0.26 0.28 0.32 0.41 0.36 0.39 0.33 0.36 0.36 0.35 0.27 0.29 0.26 0.22 0.22 0.23 0.23 0.26 0.26 0.25 0.22 0.17 0.22 0.19 0.20 0.18 0.19 0.21 0.21 0.20 0.15 0.16 0.19 0.12 0.12 0.25 0.22 0.19 0.26 0.30 0.30 0.27 0.26 0.24 0.20 0.13 0.14 0.24 0.27 0.23 0.14 0.09 0.13 0.10 0.08 0.07 0.12 0.08 0.08 0.09 0.06 0.14 0.14 0.13 0.15 0.16 0.14 0.15 0.15 0.16 0.16 0.19 0.20 0.20 0.21
0.61 0.63 0.68 0.73 0.86 0.98 1.04 1.07 1.03 0.93 0.75 0.57 0.36 0.32 0.40 0.31 0.44 0.42 0.46 0.42 0.39 0.38 0.33 0.29 0.31 0.32 0.27 0.25 0.24 0.24 0.28 0.21 0.23 0.23 0.19 0.22 0.16 0.23 0.19 0.19 0.22 0.20 0.21 0.21 0.15 0.18 0.18 0.12 0.21 0.27 0.26 0.29 0.32 0.29 0.25 0.30 0.32 0.21 0.18 0.29 0.15 0.14 0.12 0.18 0.13 0.08 0.08 0.08 0.08 0.09 0.09 0.09 0.09 0.08 0.11 0.11 0.13 0.14 0.13 0.13 0.13 0.14 0.18 0.20 0.20 0.20 0.21 0.24
0.52 0.53 0.49 0.65 0.87 0.98 0.98 1.04 0.93 0.81 0.66 0.51 0.43 0.36 0.41 0.39 0.47 0.45 0.48 0.48 0.45 0.40 0.31 0.32 0.30 0.32 0.31 0.28 0.29 0.30 0.29 0.21 0.26 0.22 0.19 0.24 0.17 0.24 0.21 0.21 0.21 0.23 0.23 0.23 0.18 0.20 0.21 0.12 0.18 0.29 0.27 0.30 0.28 0.26 0.15 0.20 0.31 0.32 0.30 0.25 0.29 0.20 0.16 0.13 0.13 0.12 0.11 0.07 0.07 0.06 0.08 0.06 0.08 0.09 0.12 0.11 0.12 0.12 0.13 0.14 0.15 0.19 0.21 0.21 0.21 0.20 0.20 0.21
0.38 0.37 0.39 0.69 0.83 0.91 1.00 0.95 0.77 0.70 0.58 0.44 0.48 0.44 0.51 0.41 0.43 0.50 0.51 0.48 0.44 0.39 0.36 0.35 0.35 0.30 0.32 0.30 0.31 0.28 0.32 0.28 0.27 0.26 0.23 0.26 0.21 0.30 0.25 0.28 0.24 0.25 0.26 0.26 0.21 0.22 0.20 0.20 0.12 0.23 0.32 0.30 0.20 0.23 0.17 0.19 0.19 0.22 0.21 0.20 0.22 0.20 0.26 0.21 0.21 0.14 0.11 0.08 0.08 0.07 0.06 0.06 0.09 0.11 0.12 0.12 0.15 0.17 0.17 0.18 0.20 0.21 0.22 0.23 0.23 0.22 0.22 0.24
0.38 0.33 0.36 0.66 0.79 0.86 0.89 0.77 0.62 0.55 0.52 0.54 0.55 0.51 0.54 0.48 0.47 0.48 0.52 0.53 0.51 0.55 0.46 0.39 0.37 0.30 0.32 0.31 0.31 0.34 0.30 0.31 0.31 0.28 0.27 0.27 0.25 0.21 0.30 0.29 0.29 0.27 0.30 0.28 0.25 0.25 0.20 0.20 0.15 0.23 0.24 0.22 0.20 0.26 0.25 0.23 0.22 0.20 0.19 0.18 0.18 0.17 0.16 0.13 0.12 0.20 0.16 0.12 0.09 0.08 0.06 0.07 0.10 0.13 0.14 0.17 0.19 0.19 0.21 0.21 0.21 0.22 0.23 0.24 0.24 0.24 0.25 0.24
0.28 0.19 0.29 0.61 0.74 0.79 0.67 0.50 0.51 0.60 0.56 0.50 0.47 0.52 0.51 0.61 0.57 0.52 0.52 0.56 0.52 0.49 0.56 0.47 0.45 0.39 0.37 0.35 0.35 0.33 0.32 0.30 0.31 0.30 0.30 0.27 0.31 0.29 0.36 0.37 0.34 0.34 0.29 0.26 0.25 0.29 0.26 0.25 0.21 0.19 0.19 0.20 0.24 0.30 0.33 0.31 0.30 0.27 0.25 0.20 0.23 0.21 0.19 0.15 0.11 0.13 0.18 0.16 0.15 0.13 0.10 0.07 0.12 0.14 0.16 0.17 0.18 0.21 0.21 0.22 0.23 0.23 0.24 0.25 0.25 0.26 0.27 0.28
0.24 0.20 0.50 0.57 0.65 0.67 0.54 0.43 0.49 0.48 0.47 0.53 0.61 0.59 0.63 0.60 0.56 0.59 0.55 0.55 0.50 0.54 0.50 0.46 0.45 0.40 0.43 0.41 0.40 0.37 0.36 0.32 0.33 0.30 0.31 0.31 0.34 0.36 0.42 0.42 0.41 0.38 0.36 0.34 0.34 0.37 0.34 0.26 0.22 0.22 0.27 0.30 0.32 0.35 0.36 0.36 0.33 0.28 0.28 0.28 0.27 0.23 0.22 0.19 0.17 0.18 0.16 0.17 0.15 0.14 0.12 0.08 0.13 0.16 0.19 0.19 0.21 0.22 0.23 0.23 0.22 0.22 0.24 0.24 0.25 0.27 0.28 0.29
0.23 0.26 0.33 0.47 0.58 0.60 0.41 0.31 0.34 0.38 0.42 0.50 0.54 0.54 0.61 0.60 0.58 0.56 0.55 0.58 0.53 0.51 0.48 0.47 0.48 0.50 0.45 0.47 0.45 0.38 0.43 0.32 0.40 0.37 0.35 0.38 0.35 0.44 0.43 0.42 0.44 0.39 0.37 0.37 0.31 0.40 0.28 0.31 0.26 0.22 0.21 0.24 0.27 0.31 0.30 0.36 0.33 0.28 0.25 0.28 0.28 0.28 0.28 0.28 0.26 0.27 0.19 0.18 0.16 0.15 0.11 0.10 0.12 0.19 0.18 0.20 0.20 0.22 0.23 0.24 0.25 0.24 0.26 0.28 0.29 0.31 0.32 0.33
0.23 0.27 0.31 0.42 0.46 0.50 0.32 0.34 0.33 0.34 0.38 0.40 0.42 0.43 0.50 0.54 0.60 0.59 0.56 0.55 0.61 0.59 0.55 0.51 0.51 0.51 0.48 0.53 0.47 0.48 0.49 0.41 0.38 0.44 0.43 0.41 0.40 0.49 0.47 0.46 0.47 0.44 0.45 0.48 0.44 0.48 0.34 0.34 0.29 0.23 0.18 0.16 0.15 0.16 0.18 0.21 0.25 0.29 0.29 0.28 0.30 0.28 0.27 0.26 0.22 0.23 0.19 0.19 0.19 0.17 0.14 0.14 0.15 0.19 0.19 0.21 0.22 0.23 0.25 0.25 0.25 0.27 0.28 0.29 0.31 0.34 0.36 0.36
0.19 0.11 0.20 0.28 0.36 0.37 0.40 0.46 0.39 0.34 0.34 0.37 0.37 0.39 0.43 0.43 0.51 0.59 0.59 0.56 0.60 0.59 0.57 0.58 0.60 0.59 0.52 0.52 0.48 0.46 0.44 0.49 0.42 0.42 0.43 0.42 0.46 0.50 0.52 0.51 0.50 0.48 0.50 0.50 0.49 0.48 0.39 0.40 0.36 0.31 0.27 0.24 0.24 0.29 0.35 0.33 0.31 0.26 0.27 0.28 0.29 0.32 0.32 0.29 0.27 0.23 0.19 0.19 0.19 0.20 0.19 0.16 0.14 0.15 0.18 0.20 0.22 0.24 0.24 0.26 0.27 0.28 0.30 0.32 0.34 0.35 0.36 0.36
0.27 0.15 0.16 0.14 0.27 0.29 0.28 0.36 0.33 0.34 0.29 0.35 0.31 0.37 0.37 0.39 0.45 0.48 0.59 0.47 0.55 0.54 0.54 0.54 0.54 0.51 0.51 0.51 0.48 0.47 0.50 0.48 0.51 0.48 0.46 0.45 0.51 0.53 0.59 0.57 0.55 0.54 0.52 0.50 0.53 0.48 0.42 0.36 0.38 0.36 0.35 0.34 0.34 0.36 0.37 0.36 0.32 0.33 0.31 0.30 0.33 0.33 0.34 0.31 0.26 0.21 0.24 0.22 0.18 0.20 0.21 0.20 0.16 0.16 0.17 0.20 0.24 0.27 0.27 0.28 0.30 0.31 0.32 0.33 0.34 0.35 0.37 0.38
0.16 0.20 0.22 0.23 0.14 0.13 0.19 0.23 0.29 0.29 0.33 0.36 0.29 0.34 0.33 0.36 0.40 0.37 0.47 0.51 0.52 0.52 0.44 0.48 0.49 0.49 0.48 0.47 0.48 0.44 0.47 0.47 0.48 0.44 0.48 0.50 0.50 0.54 0.52 0.57 0.54 0.57 0.56 0.53 0.56 0.47 0.42 0.36 0.40 0.39 0.37 0.39 0.40 0.39 0.40 0.38 0.37 0.37 0.36 0.36 0.35 0.37 0.36 0.32 0.30 0.29 0.29 0.25 0.19 0.20 0.26 0.24 0.22 0.21 0.21 0.23 0.28 0.30 0.29 0.31 0.33 0.36 0.36 0.38 0.39 0.39 0.40 0.42
0.25 0.27 0.23 0.28 0.17 0.17 0.17 0.20 0.25 0.27 0.27 0.30 0.28 0.29 0.25 0.28 0.30 0.38 0.39 0.41 0.46 0.47 0.46 0.36 0.37 0.40 0.43 0.46 0.43 0.39 0.41 0.38 0.40 0.47 0.46 0.47 0.48 0.49 0.47 0.51 0.56 0.58 0.57 0.54 0.55 0.55 0.47 0.41 0.42 0.43 0.40 0.40 0.41 0.40 0.40 0.38 0.38 0.38 0.37 0.38 0.40 0.40 0.38 0.37 0.35 0.35 0.35 0.33 0.32 0.31 0.29 0.28 0.28 0.27 0.27 0.28 0.34 0.36 0.38 0.39 0.38 0.38 0.39 0.42 0.43 0.44 0.45 0.45
0.18 0.19 0.18 0.25 0.22 0.21 0.21 0.20 0.21 0.23 0.23 0.29 0.25 0.28 0.26 0.24 0.23 0.29 0.38 0.38 0.35 0.39 0.46 0.37 0.36 0.38 0.40 0.41 0.40 0.34 0.36 0.37 0.35 0.34 0.45 0.48 0.46 0.49 0.48 0.49 0.48 0.54 0.55 0.51 0.51 0.55 0.47 0.40 0.45 0.44 0.40 0.39 0.41 0.43 0.44 0.42 0.40 0.38 0.40 0.41 0.41 0.40 0.39 0.39 0.38 0.38 0.40 0.39 0.38 0.36 0.34 0.32 0.34 0.39 0.40 0.38 0.39 0.43 0.44 0.41 0.40 0.41 0.43 0.45 0.46 0.46 0.45 0.45
0.31 0.29 0.32 0.21 0.16 0.19 0.22 0.23 0.20 0.20 0.19 0.23 0.24 0.24 0.27 0.26 0.24 0.28 0.30 0.37 0.31 0.30 0.36 0.32 0.34 0.38 0.41 0.41 0.40 0.40 0.42 0.40 0.39 0.37 0.40 0.40 0.34 0.42 0.39 0.43 0.47 0.41 0.44 0.43 0.44 0.46 0.44 0.38 0.43 0.40 0.34 0.33 0.36 0.37 0.40 0.43 0.44 0.42 0.40 0.41 0.40 0.38 0.35 0.36 0.36 0.39 0.39 0.36 0.37 0.39 0.37 0.33 0.35 0.44 0.46 0.42 0.41 0.41 0.42 0.43 0.43 0.43 0.45 0.47 0.47 0.48 0.47 0.46
0.35 0.37 0.34 0.28 0.18 0.22 0.19 0.22 0.24 0.21 0.16 0.19 0.19 0.18 0.22 0.22 0.26 0.29 0.26 0.35 0.34 0.32 0.32 0.29 0.30 0.32 0.33 0.36 0.36 0.37 0.43 0.48 0.48 0.52 0.51 0.49 0.50 0.50 0.50 0.50 0.47 0.42 0.40 0.39 0.44 0.39 0.39 0.36 0.34 0.34 0.29 0.27 0.31 0.35 0.35 0.37 0.37 0.33 0.33 0.32 0.34 0.38 0.40 0.40 0.42 0.44 0.42 0.42 0.38 0.36 0.35 0.40 0.43 0.45 0.44 0.42 0.42 0.42 0.43 0.44 0.44 0.44 0.47 0.50 0.50 0.48 0.47 0.48
Wind_Speed
23 24 24 25 25 25 24 23 23 24 24 23 23 23 23 23 22 22 22 22 21 21 21 22 22 22 21 20 20 20 20 21 20 20 20 20 19 18 18 17 17 16 16 15 14 13 13 12 12 13 12 10 10 10 9 9 8 7 6 6 5 4 3 3 4 4 3 3 3 3 3 3 2 1 2 1 2 2 2 2 2 2 2 2 3 5 6 6
23 24 25 26 26 25 25 24 24 24 24 23 23 23 23 23 22 22 22 21 21 21 21 22 22 22 21 21 20 20 20 21 20 20 21 20 19 19 18 17 17 16 16 15 14 13 13 12 12 13 12 11 10 10 9 9 8 8 7 6 6 5 3 3 4 4 3 4 4 4 4 3 3 3 2 1 1 2 2 2 2 2 2 3 3 5 5 5
24 24 25 26 26 26 25 24 24 24 24 24 24 23 23 22 22 22 22 21 21 21 21 21 21 21 21 21 20 20 20 20 19 20 21 20 19 19 18 18 17 16 16 16 14 14 13 12 13 13 12 11 11 10 9 9 9 8 7 6 7 7 5 3 3 3 4 5 4 4 4 2 2 3 2 2 2 2 2 2 2 2 3 3 3 4 5 5
24 25 26 27 27 26 26 25 25 25 25 24 24 23 23 22 22 22 22 22 21 21 21 20 20 21 21 20 20 20 20 20 19 20 20 20 19 19 18 18 17 16 16 16 15 14 13 12 14 14 12 12 11 10 10 10 9 8 8 8 8 7 5 4 3 3 3 5 5 4 3 2 2 3 3 3 2 1 3 4 3 4 4 5 4 4 4 4
25 25 26 27 27 27 26 26 26 25 25 24 24 24 23 23 22 22 22 21 22 21 21 20 20 20 20 20 20 20 20 19 19 20 20 20 19 19 18 18 17 16 16 15 15 14 13 12 13 13 12 12 11 10 11 11 10 8 8 9 8 7 6 6 6 4 3 4 4 4 2 2 3 3 3 3 2 3 4 5 5 5 5 5 5 5 4 4
26 26 27 28 28 27 27 26 26 26 25 25 25 24 24 23 23 22 22 22 22 21 21 21 20 20 20 20 20 21 20 19 19 20 20 20 19 19 18 18 17 16 16 15 14 14 13 12 12 13 12 12 12 11 11 12 11 9 9 8 7 7 7 8 7 5 4 4 4 3 3 3 3 3 4 4 3 4 3 3 4 4 5 5 5 5 5 4
27 27 27 28 28 28 28 27 27 26 26 25 25 24 24 23 23 22 22 22 22 21 21 21 21 21 20 20 20 20 20 19 18 19 20 20 19 19 18 18 17 16 16 15 14 14 14 13 13 13 12 12 12 12 12 12 11 10 10 9 8 8 8 8 8 6 5 4 5 5 4 4 4 4 4 4 5 5 4 3 2 2 4 5 5 5 5 5
27 28 28 28 29 29 28 28 27 27 26 26 25 24 24 23 23 22 22 22 22 22 21 21 21 21 21 21 21 20 20 19 18 19 20 20 19 19 18 18 17 16 16 16 15 14 14 14 14 14 12 12 13 12 12 11 10 10 11 10 9 9 9 9 8 7 6 6 6 5 5 6 6 5 5 6 7 7 6 5 3 2 3 4 5 5 5 5
28 28 28 29 29 29 29 28 28 27 27 26 25 25 24 23 23 22 21 21 22 22 21 21 21 21 21 21 21 19 20 20 19 19 20 19 19 19 18 18 17 17 16 16 16 15 14 14 14 14 13 13 13 12 12 11 11 12 11 11 10 9 10 9 8 8 8 8 7 6 7 8 7 6 6 8 8 8 7 5 5 4 4 5 5 6 6 5
29 29 29 29 30 30 29 29 29 28 27 26 26 25 24 24 23 22 22 21 21 22 21 21 21 21 22 21 20 20 20 20 19 18 19 19 19 18 18 18 17 17 16 16 16 15 15 15 14 14 14 13 12 12 12 12 12 12 11 11 10 10 10 9 9 9 9 8 8 8 8 9 8 7 7 8 8 8 7 7 6 6 6 7 6 7 7 7
29 29 30 30 30 30 30 29 29 28 27 27 26 25 25 24 23 23 22 22 22 22 22 21 21 22 22 21 21 20 19 20 19 18 18 19 19 18 18 18 17 17 16 16 16 16 16 15 14 14 14 13 12 12 12 12 12 12 11 10 11 10 10 10 10 10 10 9 9 8 8 9 7 7 8 10 8 7 8 9 8 8 8 8 8 8 8 8
29 30 30 30 31 31 30 29 29 29 28 27 26 26 25 24 24 23 23 22 22 22 22 22 21 22 22 21 21 21 19 20 20 19 18 18 18 18 18 18 17 17 16 16 16 16 16 15 13 14 14 13 13 12 13 13 12 12 12 11 12 10 11 12 11 11 10 10 10 8 9 10 9 9 11 10 9 8 8 9 10 10 9 9 9 9 9 9
30 30 30 31 31 31 31 30 29 29 28 27 27 26 25 25 24 24 24 23 23 22 22 22 22 22 21 20 21 21 20 20 20 19 18 18 18 18 17 17 17 17 16 16 16 16 16 15 13 14 14 13 13 13 13 12 12 13 12 12 12 10 12 14 12 11 10 10 10 9 9 11 10 12 12 10 9 9 9 10 10 10 10 10 10 10 10 10
29 30 30 31 31 32 31 31 30 29 29 28 27 26 26 25 25 25 24 24 24 23 23 22 22 22 21 20 20 20 20 20 20 20 19 18 17 17 16 16 16 16 16 16 16 16 15 15 14 13 13 13 13 13 12 11 12 13 13 12 12 11 13 13 12 11 11 11 10 8 10 11 11 12 12 10 10 9 10 11 11 11 11 11 11 11 11 11
29 30 30 31 31 32 31 31 30 29 29 28 28 27 26 26 25 25 25 24 24 23 23 23 22 22 21 20 20 20 20 20 20 20 20 19 18 17 16 16 15 16 16 15 15 15 15 14 14 13 13 13 13 12 12 12 12 12 12 13 12 13 13 13 11 12 11 11 11 9 10 12 11 12 11 10 10 10 11 12 12 12 12 12 12 12 12 12
29 30 30 30 31 31 31 31 31 30 30 29 28 27 27 26 26 26 25 25 24 24 23 23 23 22 21 20 20 20 21 21 20 20 20 19 18 17 16 15 15 15 15 15 15 15 15 14 14 14 14 14 13 12 12 11 12 12 12 13 13 13 13 13 12 12 11 11 11 11 11 12 11 11 10 10 10 10 11 12 12 12 12 12 12 12 12 12
28 29 30 30 30 31 31 31 31 30 30 29 29 28 27 27 26 26 26 25 25 25 24 23 23 22 20 20 20 21 21 21 21 20 19 19 18 18 16 15 15 15 15 15 14 14 14 14 14 14 14 13 13 12 12 12 13 13 13 13 14 13 12 13 13 12 11 10 12 12 13 13 13 13 13 12 11 11 12 13 13 13 13 13 13 13 13 12
28 28 29 29 30 30 30 30 30 30 30 29 29 29 28 27 27 26 26 26 25 24 24 23 23 22 21 21 21 21 21 21 21 21 20 19 18 17 17 16 15 15 14 14 14 14 14 14 14 14 13 13 13 13 12 13 14 14 14 13 13 13 13 13 13 12 11 11 13 13 14 15 16 16 16 15 14 14 15 15 15 15 14 14 13 13 13 13
27 28 28 29 29 29 30 30 30 30 29 29 29 29 29 28 27 27 26 27 26 25 24 25 25 23 21 22 22 21 21 22 21 21 20 19 18 18 17 16 15 15 14 14 14 15 14 13 13 14 14 15 15 14 15 15 14 13 14 13 13 13 13 14 13 13 12 12 14 15 15 16 16 16 16 17 16 16 16 16 16 15 15 15 14 14 14 14
27 27 28 28 28 28 29 29 29 29 29 29 30 29 29 28 27 27 27 28 28 26 25 26 27 24 21 21 23 22 21 21 21 21 21 20 19 18 17 16 15 14 14 15 15 15 14 14 15 16 16 17 17 16 16 15 14 12 12 11 12 13 13 13 13 13 13 13 15 16 16 17 16 16 17 17 17 16 16 16 16 16 15 15 15 15 16 15
27 27 27 28 28 28 28 28 29 29 29 30 30 29 29 29 28 27 28 28 28 27 25 26 27 25 22 22 23 23 21 21 21 21 21 21 19 18 18 17 16 15 16 16 15 14 13 14 16 17 17 17 17 16 15 14 13 12 12 11 12 12 13 13 13 14 13 13 16 15 16 18 17 16 17 17 16 15 16 16 16 17 16 16 16 16 16 16
27 27 27 27 28 28 28 28 28 29 29 30 30 28 28 29 28 28 28 27 28 28 26 26 26 25 24 23 23 22 21 20 20 22 22 21 20 19 18 17 16 17 16 15 14 13 14 15 17 17 17 15 14 14 13 13 13 13 13 13 13 13 14 14 14 15 14 14 16 16 16 18 18 17 18 18 17 17 18 18 17 17 16 16 17 17 17 17
28 28 28 28 28 28 28 28 28 28 29 30 29 28 28 28 28 28 27 26 28 28 27 27 26 25 25 24 24 23 21 21 21 23 23 22 21 20 19 18 17 17 16 16 16 15 15 16 17 17 16 14 13 13 13 13 14 14 14 14 15 15 14 15 15 15 14 14 16 16 17 18 17 17 18 19 19 18 18 19 18 18 17 18 18 18 18 18
28 28 28 28 28 28 28 28 28 28 30 30 29 27 27 28 28 28 28 26 27 29 29 28 27 27 26 25 26 24 22 22 22 23 24 23 22 20 19 19 18 17 17 17 16 16 16 16 16 15 15 14 14 14 13 14 15 16 15 15 16 16 15 16 15 15 15 15 15 15 17 18 16 15 16 16 16 16 17 17 17 18 18 18 18 18 18 18
28 29 29 28 28 28 27 27 28 28 29 30 29 28 27 27 27 28 27 26 26 28 29 29 28 28 28 26 26 25 23 22 22 24 25 24 23 21 20 20 18 19 19 18 16 16 18 16 15 15 15 14 15 15 16 16 16 16 16 16 17 16 15 15 14 14 14 16 16 14 15 17 16 16 16 16 14 15 15 14 16 17 17 17 18 18 18 18
28 29 29 29 29 28 27 27 27 28 29 30 29 28 27 27 27 28 27 25 27 28 29 30 29 28 29 27 27 26 24 23 23 24 24 24 23 21 20 20 19 19 20 18 16 17 17 16 14 15 15 13 14 16 17 16 16 17 17 17 16 14 14 15 14 14 15 16 16 13 13 16 18 17 17 16 15 16 15 15 16 17 17 18 18 18 17 17
26 28 29 30 29 29 28 27 27 28 28 29 30 29 28 27 27 27 25 23 26 30 29 30 30 29 29 28 28 26 25 26 24 24 25 24 24 22 21 21 20 19 19 17 17 18 17 16 14 14 14 13 14 16 17 16 15 18 18 16 14 13 14 15 14 15 16 17 17 15 14 16 18 17 16 15 15 16 16 16 17 18 18 19 18 18 17 18
25 26 28 30 30 29 28 27 26 27 27 27 29 29 28 27 27 27 25 22 25 28 29 30 30 29 29 29 29 27 26 26 24 25 26 24 24 23 22 23 22 21 20 18 19 19 17 17 17 16 14 15 16 17 17 15 15 18 18 16 15 14 15 15 14 15 16 16 17 17 15 16 19 18 15 15 16 17 17 17 18 19 19 19 19 18 17 16
25 25 27 29 30 29 28 27 27 27 27 27 28 29 28 27 26 25 24 24 25 26 27 30 30 30 29 29 28 28 27 26 25 26 27 25 24 23 23 24 23 21 20 19 20 20 18 19 19 17 17 18 18 17 17 16 16 18 17 15 14 15 15 15 15 15 15 16 19 19 16 16 19 19 17 16 17 17 17 17 18 18 17 17 16 16 15 13
27 26 26 28 29 28 28 27 27 26 26 26 27 28 27 26 26 25 25 26 26 25 26 28 30 31 31 29 29 29 27 27 26 25 26 26 25 23 23 23 22 21 21 19 20 21 19 19 19 18 18 19 18 17 17 16 16 16 15 14 15 15 15 16 16 15 16 18 19 19 18 17 19 19 17 17 17 16 16 16 16 15 14 13 13 13 14 13
29 28 27 28 28 28 28 27 27 26 26 26 27 28 27 26 26 26 26 27 26 26 27 28 29 31 31 31 30 30 28 27 27 27 26 26 25 24 24 24 22 21 22 21 21 22 20 20 20 19 19 18 17 17 17 16 16 16 15 15 15 16 16 16 17 16 17 19 19 18 17 18 20 19 16 16 16 16 16 15 16 16 15 14 13 14 15 16
28 29 28 28 28 28 28 27 27 26 26 27 27 28 27 26 27 28 27 26 25 27 29 29 29 31 31 31 30 30 29 29 29 28 27 27 27 27 26 27 25 22 23 24 23 22 22 23 22 20 20 20 18 17 17 18 17 16 16 15 15 16 16 16 18 17 19 21 19 18 17 19 23 22 20 20 19 18 17 16 16 17 16 16 15 16 17 18
28 29 30 30 29 29 28 27 27 27 26 27 27 28 27 26 29 31 29 26 25 26 28 28 28 29 30 30 30 30 29 29 30 29 28 27 27 28 28 28 27 25 24 25 24 23 23 24 24 22 22 22 21 19 19 19 19 19 19 18 17 16 16 18 19 18 20 21 20 19 18 21 23 21 21 22 19 17 17 17 18 18 17 17 16 17 17 18
29 29 30 31 31 30 29 28 27 27 27 27 27 27 28 28 29 30 29 27 25 23 25 27 27 28 29 29 31 31 29 29 30 29 29 28 28 29 29 29 29 27 25 24 25 25 24 24 25 25 24 24 23 23 21 20 20 21 20 19 20 19 18 19 18 19 20 19 20 20 19 20 19 18 18 18 17 16 16 16 16 16 16 16 16 17 18 19
29 30 31 31 31 31 31 29 28 28 28 28 28 28 31 31 29 29 30 28 26 24 24 25 26 27 29 28 29 31 30 29 30 29 29 30 31 31 30 30 30 28 27 26 25 25 25 26 26 24 23 24 24 24 22 20 21 22 21 20 23 23 20 19 19 20 19 19 20 21 22 23 22 22 22 21 20 19 19 19 18 18 18 17 18 20 21 22
29 31 31 31 32 32 32 31 29 28 28 28 29 31 32 31 28 28 29 28 27 25 24 24 25 27 29 28 29 30 29 29 30 30 30 31 31 32 31 31 31 30 29 28 26 25 25 26 25 23 23 24 23 23 23 23 23 23 23 24 25 23 20 20 21 20 19 21 22 22 25 25 24 25 26 25 24 23 22 22 21 21 20 19 20 21 21 21
28 29 31 31 32 32 33 33 30 29 28 29 31 32 31 29 28 27 27 28 28 27 25 25 25 26 28 28 29 30 29 28 29 29 30 30 30 32 32 31 31 32 31 29 28 27 25 25 25 24 24 25 24 22 23 23 23 23 24 26 24 22 21 21 21 20 19 22 23 23 26 26 23 24 23 20 20 21 20 19 20 20 19 19 20 20 20 20
28 28 30 31 32 32 32 33 32 31 28 28 31 32 31 30 29 27 26 27 28 28 27 27 26 26 27 28 29 29 29 28 29 29 30 30 30 31 32 31 31 33 32 29 28 28 26 26 26 25 25 26 24 23 24 24 24 25 25 24 22 22 23 22 22 21 21 22 24 24 25 26 26 26 24 21 22 23 23 23 23 21 19 19 20 20 21 20
29 29 29 30 32 32 32 32 33 33 30 29 31 32 32 31 30 29 28 27 27 28 28 28 27 26 27 28 28 28 28 29 29 29 29 29 29 30 30 30 30 32 33 30 29 28 26 27 27 26 26 26 24 26 28 27 26 25 25 24 23 23 23 24 24 23 21 22 24 24 24 26 28 26 25 26 26 26 26 24 22 19 19 21 22 21 21 20
30 30 30 30 32 32 32 31 32 33 32 32 31 31 30 30 30 31 31 29 27 28 28 28 28 28 28 28 27 27 27 28 29 29 28 29 29 28 29 29 29 30 32 31 30 29 27 28 28 27 27 27 27 29 29 27 27 26 26 26 26 25 23 24 25 25 23 23 23 24 26 28 28 24 23 23 23 23 22 20 20 20 21 22 21 21 21 21
30 30 31 31 31 32 33 32 31 32 32 32 33 32 30 30 30 30 30 30 29 29 29 29 29 29 29 28 28 28 27 27 28 28 28 29 29 28 28 28 28 27 28 30 31 30 29 29 28 28 28 29 31 30 28 28 28 28 28 29 29 27 25 24 25 26 26 25 25 24 27 32 29 25 24 23 21 21 20 20 21 21 21 21 21 21 22 24
30 30 31 32 32 33 33 33 32 32 32 32 33 33 32 32 31 31 30 30 30 30 29 29 29 29 29 28 29 29 28 28 29 29 28 28 28 27 27 28 28 27 27 28 29 29 28 28 28 30 31 31 31 30 28 29 29 28 29 30 29 29 28 27 27 27 26 28 28 25 28 34 30 24 24 24 23 22 21 20 21 22 23 24 24 26 27 30
31 31 31 32 33 34 34 34 34 34 34 33 32 32 33 32 32 33 32 31 31 31 30 29 30 29 29 29 29 29 28 28 28 29 28 27 28 28 27 27 27 27 26 27 28 28 27 27 28 29 30 30 30 29 29 28 28 30 31 30 29 30 30 29 29 27 26 28 29 26 29 35 31 25 25 25 25 24 23 22 23 25 27 28 30 32 33 33
30 31 31 32 34 35 35 34 35 35 35 34 33 34 34 33 32 33 33 34 33 32 32 32 31 29 29 29 28 29 30 28 28 29 28 28 28 28 27 26 26 26 27 28 28 28 28 28 28 27 26 27 28 29 30 30 30 31 32 31 31 31 30 29 29 28 28 30 30 28 31 36 32 27 26 27 26 26 27 27 28 30 31 32 34 34 34 33
28 30 31 32 34 35 35 34 34 35 35 34 35 35 35 34 34 34 33 33 34 33 34 34 33 31 29 28 28 30 30 29 29 29 29 29 29 28 27 26 26 26 27 27 27 28 29 29 29 28 28 29 29 29 31 31 31 32 32 32 32 31 31 31 30 30 31 33 33 32 34 38 37 32 30 30 29 29 31 32 33 33 34 34 34 33 33 33
28 29 30 31 33 35 35 34 33 34 35 35 35 35 36 35 34 35 34 33 33 33 33 34 34 33 31 31 31 32 32 31 30 30 30 30 29 29 28 27 27 27 27 27 26 28 29 30 30 31 32 33 31 30 30 29 29 31 32 33 32 32 32 32 31 33 35 35 35 37 38 40 42 39 36 34 31 31 34 35 35 35 35 34 34 34 35 36
29 29 30 30 31 33 35 35 35 34 34 35 36 36 37 36 34 35 35 34 34 34 32 32 33 34 34 34 33 33 34 33 32 32 32 31 30 29 28 28 27 28 28 27 27 27 28 30 31 31 32 33 31 29 28 27 29 30 31 31 31 31 31 32 34 36 35 33 37 39 38 39 43 42 39 36 32 32 34 35 36 36 36 36 36 37 38 39
31 30 31 31 30 31 34 36 36 36 35 35 35 35 36 37 36 36 36 35 34 34 33 33 34 35 35 35 34 34 34 34 33 34 33 32 31 30 29 29 29 29 29 28 28 28 28 31 31 30 32 32 31 30 29 28 29 29 29 30 30 30 31 33 37 37 34 34 39 39 36 38 42 42 40 37 33 33 35 36 37 37 37 38 38 39 40 40
33 32 32 32 32 32 33 33 34 37 37 36 35 35 36 38 38 37 35 34 34 35 35 35 36 36 34 34 34 34 35 35 36 36 34 32 32 31 30 31 30 29 29 29 30 30 30 31 32 31 33 34 34 33 32 32 32 32 31 31 30 30 32 34 36 37 36 37 40 40 39 42 42 40 41 40 37 36 36 37 38 38 38 38 39 39 39 38
34 33 32 32 33 33 33 32 33 35 37 37 37 36 36 38 39 37 35 35 36 35 36 37 37 36 35 35 34 35 35 35 35 35 34 33 33 32 32 32 31 29 29 29 30 31 31 32 31 30 32 35 36 36 35 35 36 36 35 34 34 35 36 36 36 36 35 37 39 39 41 43 41 37 38 40 40 37 36 37 39 39 38 37 37 37 37 37
36 35 34 33 33 33 34 34 33 34 36 37 38 38 37 37 38 36 35 36 37 35 36 37 36 34 34 35 35 35 35 33 33 33 33 34 33 32 32 33 32 31 31 30 30 30 31 31 30 29 31 34 35 35 35 34 34 36 38 39 39 40 40 39 37 36 36 37 38 38 39 40 38 33 34 39 40 38 37 38 38 38 36 35 35 37 38 38
38 37 36 35 34 34 35 34 34 35 36 37 38 38 36 36 35 35 34 35 37 37 37 36 34 32 33 35 36 36 34 32 31 31 32 32 31 30 30 31 31 31 32 31 30 31 30 30 30 30 31 33 33 32 31 30 30 34 38 39 39 39 39 40 39 38 39 38 38 38 38 38 36 34 35 38 38 37 37 36 36 37 35 33 35 38 39 39
Wind_Direction
195 193 192 192 190 189 189 188 187 186 185 185 185 184 184 184 183 184 184 185 185 185 185 186 185 186 186 187 187 186 185 183 182 182 182 183 185 185 185 186 185 184 184 182 180 181 184 185 189 187 185 188 189 193 198 199 197 194 191 190 205 204 201 209 193 185 167 163 175 177 161 134 149 156 134 109 80 100 106 102 100 78 83 85 96 121 134 146
196 195 193 193 192 191 191 190 189 188 188 187 186 186 186 185 184 184 185 185 185 185 185 186 186 187 188 188 188 186 185 183 184 185 186 185 186 187 187 187 186 186 185 183 183 184 185 190 191 187 186 192 195 195 198 202 197 197 197 196 210 208 209 221 198 189 178 174 184 188 177 154 172 174 155 159 156 132 114 113 115 98 97 100 112 128 139 149
197 196 195 194 194 193 192 191 191 191 189 188 187 187 187 186 186 185 185 185 185 185 185 186 186 187 188 189 188 187 185 184 185 188 188 188 188 189 189 188 188 188 188 187 189 190 192 198 196 189 190 197 199 197 199 204 204 204 199 200 218 209 200 224 206 202 200 185 184 197 194 181 185 170 161 178 172 161 164 159 141 148 159 151 147 146 149 155
198 198 196 195 195 195 194 193 192 192 191 190 189 189 188 187 187 187 186 186 185 185 185 186 186 187 188 189 189 188 185 185 188 190 189 190 190 190 190 190 191 191 191 192 195 196 199 203 199 194 196 202 202 200 203 208 208 209 202 203 218 208 204 234 228 226 220 194 191 196 189 192 192 176 178 174 155 230 227 206 193 192 185 178 179 170 163 164
199 199 197 196 197 197 196 194 193 193 192 191 190 190 190 189 188 188 188 188 187 187 187 187 187 187 188 189 189 188 185 186 191 191 190 191 191 192 192 193 194 194 195 196 199 201 202 203 201 199 202 205 203 203 210 211 208 211 210 206 214 209 212 234 233 240 239 209 199 194 198 212 198 195 199 182 183 236 234 221 217 210 195 189 190 185 177 175
201 200 199 198 198 198 198 196 194 194 193 192 191 190 190 190 189 189 190 190 189 189 189 189 188 188 189 190 188 188 186 188 191 191 192 193 192 194 194 195 197 198 198 199 201 202 204 204 204 206 207 207 205 206 212 214 210 213 218 214 217 215 214 228 233 238 235 212 215 222 231 227 208 229 226 209 218 230 230 222 220 216 204 196 190 187 188 190
202 201 200 199 199 199 199 198 195 194 194 192 191 190 190 190 190 190 191 191 191 191 191 190 190 190 190 189 188 188 189 192 193 192 193 194 195 196 197 199 199 200 200 200 203 203 205 207 210 210 209 211 210 211 212 214 213 213 222 223 220 219 218 227 231 234 231 219 232 237 237 233 225 241 247 238 238 236 238 245 242 212 193 192 193 195 199 202
202 202 201 200 200 199 199 199 197 196 195 193 192 192 191 191 192 192 192 192 192 192 193 192 192 191 190 189 189 189 193 195 194 193 194 195 197 198 199 200 200 201 201 203 205 205 207 210 214 213 212 217 213 212 214 215 221 219 223 226 222 226 227 229 231 232 235 232 238 242 243 244 240 246 253 247 245 240 239 246 252 230 193 197 205 206 208 212
203 202 201 201 201 200 200 199 198 197 196 195 194 194 193 193 194 194 194 194 194 193 194 194 194 193 192 191 190 191 196 196 195 195 196 197 198 198 199 200 201 202 204 207 208 206 210 212 216 215 214 218 213 213 217 217 227 225 221 224 223 228 228 229 233 233 236 239 241 243 252 257 253 256 260 252 245 239 238 240 239 231 216 214 217 217 218 222
202 202 202 202 201 201 200 200 199 199 198 197 197 196 196 196 196 196 196 196 195 195 195 195 196 195 193 193 191 193 197 196 197 197 197 198 199 198 200 201 202 203 206 210 209 208 211 214 218 217 215 217 215 219 221 219 227 223 216 222 222 225 231 232 234 234 235 240 240 239 251 258 257 260 262 256 249 239 237 241 238 232 228 228 228 229 230 232
202 202 202 202 201 201 201 200 201 200 199 199 199 199 198 198 198 198 198 197 197 196 196 196 197 196 194 194 193 196 198 197 198 199 198 199 199 199 201 203 204 204 208 210 209 211 213 216 220 219 218 219 219 224 225 223 224 218 214 226 232 233 238 237 233 234 237 241 240 239 251 256 256 258 251 250 251 243 236 240 240 236 236 236 235 238 239 243
202 202 202 202 202 202 202 202 201 201 200 200 200 200 200 200 200 199 199 198 198 197 197 197 197 197 196 196 197 199 200 199 200 199 198 198 199 201 202 205 206 206 209 209 212 215 214 217 220 219 220 219 221 226 228 227 223 219 220 230 240 244 244 239 235 234 235 241 242 242 256 258 249 247 249 249 249 245 239 239 241 241 242 242 242 244 247 249
202 202 202 202 202 202 203 203 202 202 201 201 201 202 202 202 201 201 200 199 199 198 198 198 198 198 197 199 201 202 202 201 201 199 198 197 199 203 204 206 208 208 211 211 213 215 215 218 217 216 220 219 222 225 226 228 225 226 230 230 237 247 248 242 237 234 234 240 243 242 252 257 251 247 254 256 245 241 240 239 242 244 246 246 247 249 251 252
202 202 202 201 202 202 203 203 203 203 202 203 203 203 204 203 203 202 201 200 200 199 199 198 198 199 199 201 202 202 202 201 200 199 199 199 199 202 205 207 209 210 212 212 213 215 216 218 216 218 222 219 220 223 227 232 229 229 234 235 235 237 244 246 237 231 234 242 243 239 246 254 257 257 262 259 242 237 240 242 245 246 248 249 250 252 254 254
201 201 201 201 201 202 203 203 204 204 204 204 205 205 205 205 204 203 202 201 201 200 200 199 199 199 201 203 203 202 202 201 201 201 200 200 200 203 206 206 208 210 211 212 213 215 216 216 217 219 221 221 219 221 227 233 233 230 231 240 241 233 241 250 240 229 232 243 242 238 245 254 257 260 265 256 241 240 243 247 250 250 251 252 253 254 255 257
200 200 200 201 201 201 203 204 205 205 205 205 205 206 206 205 205 204 203 202 201 201 200 200 201 200 201 204 204 202 202 203 202 202 202 202 203 204 205 206 209 210 211 212 213 215 215 216 218 218 218 222 222 221 226 231 237 235 227 233 239 234 239 247 246 239 235 241 245 241 244 251 255 257 264 258 246 247 249 251 252 252 253 254 255 255 255 257
199 199 200 201 201 202 203 204 206 207 207 207 206 206 205 204 204 204 203 202 201 201 201 202 202 202 204 205 203 204 204 204 203 203 204 204 204 205 206 208 210 211 212 214 215 216 217 218 219 220 221 223 223 221 223 229 235 237 232 232 235 232 233 240 245 247 241 240 247 247 246 249 255 260 265 263 256 253 254 256 256 255 255 254 254 254 254 255
199 199 200 200 202 203 204 205 206 207 208 208 207 205 204 203 203 204 204 203 202 201 203 205 202 203 209 207 204 205 204 203 204 204 204 205 206 206 207 209 209 210 212 214 217 217 218 221 220 222 226 226 224 219 220 226 227 229 231 233 237 234 232 237 243 246 245 245 249 252 251 252 257 261 263 262 260 257 256 257 258 257 256 256 255 253 254 255
198 199 200 200 201 202 204 205 206 207 208 208 207 204 203 202 203 204 206 206 203 203 206 206 203 205 209 207 206 206 205 204 204 205 206 207 207 208 209 209 209 210 212 215 220 219 218 222 222 221 224 225 223 218 218 223 221 222 226 228 233 234 237 240 244 249 248 248 252 252 253 255 256 259 260 261 260 257 257 258 257 256 256 256 256 255 256 256
198 199 200 200 201 202 203 204 206 206 206 206 206 204 204 204 204 207 209 209 207 207 209 208 205 207 209 207 206 205 204 205 206 207 207 208 208 209 210 211 211 214 216 215 219 222 218 220 223 223 223 224 224 219 218 223 223 222 224 228 231 232 240 244 245 252 251 249 253 254 256 258 257 258 260 261 262 258 256 255 254 254 254 255 255 256 257 258
199 200 201 201 201 202 203 204 205 206 206 205 205 206 208 207 208 210 211 211 210 209 210 209 207 210 210 207 205 204 205 207 209 209 209 209 208 209 212 213 213 218 221 215 216 224 221 220 224 225 223 222 224 221 218 223 227 228 227 229 236 235 238 243 245 252 254 252 256 260 262 261 257 258 260 261 261 257 253 250 251 252 252 255 256 257 259 262
200 201 202 203 203 203 204 204 205 206 206 205 205 208 210 210 210 211 210 211 213 211 211 210 209 212 212 208 207 207 208 209 212 212 211 210 210 212 214 214 214 218 221 216 216 223 223 225 228 228 223 220 224 222 218 223 226 230 232 232 239 240 240 247 251 254 255 253 258 266 267 262 258 257 258 259 256 254 253 249 249 251 252 256 257 259 262 265
203 202 203 204 204 205 205 205 206 206 205 205 206 209 210 211 211 211 210 211 213 214 214 212 212 213 212 211 210 209 210 211 212 214 213 210 212 215 214 214 216 218 220 218 216 219 223 228 230 227 222 218 225 227 223 228 231 233 233 234 241 245 244 248 253 255 255 255 259 266 268 263 261 259 257 258 256 256 257 252 251 253 253 255 258 261 263 264
206 205 204 204 205 206 206 206 206 206 205 205 207 210 210 210 211 211 212 213 214 215 215 214 214 213 213 213 211 211 212 213 213 214 213 211 213 216 216 216 217 218 220 218 215 218 226 231 230 226 223 219 223 228 227 228 236 239 235 234 241 246 245 246 252 257 259 263 263 267 270 265 263 264 261 261 259 256 257 254 252 253 254 257 261 264 263 264
208 207 206 205 205 206 206 207 207 207 206 206 208 210 210 211 212 211 212 215 217 217 216 216 215 215 214 214 213 213 214 216 216 215 213 212 214 217 220 219 218 221 222 218 216 222 230 233 230 226 227 226 224 229 229 227 235 243 241 237 238 239 241 246 255 261 263 265 265 267 270 264 263 264 262 264 263 260 260 256 251 254 257 258 260 262 263 265
209 208 207 206 205 205 206 207 208 208 207 208 210 210 210 211 211 211 211 216 221 219 216 215 216 216 215 214 213 213 217 220 219 216 214 215 217 218 220 222 222 223 222 221 223 227 230 232 229 225 226 229 229 233 235 230 233 242 243 240 238 237 240 245 253 258 257 258 262 263 261 263 267 262 255 258 262 263 264 260 256 257 259 258 259 262 264 266
208 208 207 206 205 206 207 207 208 208 208 210 211 210 210 210 210 210 211 218 224 219 215 217 217 216 216 215 213 213 219 220 218 218 216 217 220 220 221 223 224 225 224 223 227 231 230 230 231 228 228 231 231 235 238 232 231 241 243 240 239 240 242 244 248 252 254 257 265 266 258 261 266 259 252 258 264 266 264 262 261 260 259 260 262 264 266 268
209 208 208 207 206 206 207 207 208 208 208 211 211 210 210 209 209 210 211 218 222 217 216 218 217 216 216 215 214 216 219 218 217 221 219 218 222 222 223 224 223 225 227 223 227 234 233 228 229 228 230 234 233 237 240 234 234 242 242 239 239 240 242 246 249 253 258 261 264 265 260 259 262 259 258 264 265 264 261 260 261 262 262 264 265 265 265 267
209 209 208 206 206 208 209 208 208 208 210 211 210 209 209 208 209 210 212 218 219 217 218 218 216 217 216 214 217 218 219 220 221 221 221 220 223 223 224 225 223 224 229 226 226 234 235 231 231 229 230 235 237 241 243 238 238 242 241 243 247 247 249 251 251 253 261 260 257 258 257 257 262 261 259 262 261 260 261 262 262 264 266 266 266 263 259 261
210 211 209 206 206 208 209 209 209 209 210 210 209 207 206 208 208 208 215 220 219 219 220 217 218 218 214 215 220 220 220 223 223 220 221 222 224 225 224 225 225 224 231 233 229 234 237 236 235 234 234 234 235 241 245 242 239 240 243 248 251 254 255 255 256 256 259 258 255 256 254 254 261 262 255 255 257 256 258 263 263 264 266 265 263 259 256 261
211 211 211 208 207 208 208 209 210 210 210 210 208 205 205 209 210 211 217 220 219 221 220 219 220 217 215 216 220 221 221 224 223 219 222 224 224 226 224 226 227 227 232 234 234 239 241 239 238 239 239 236 235 242 248 248 243 242 244 245 249 255 257 259 260 257 254 256 257 259 256 251 252 257 256 256 258 257 258 262 262 262 263 262 261 260 261 266
211 211 211 209 209 209 209 210 211 211 212 210 207 205 206 209 213 217 219 218 221 224 220 219 221 218 217 218 220 222 222 224 224 222 223 224 225 226 226 226 226 227 232 232 234 240 241 240 240 242 242 238 236 241 246 249 247 244 243 241 245 253 257 257 256 253 252 254 257 260 259 252 252 257 261 260 259 258 260 262 259 256 258 261 262 265 267 269
213 213 211 210 211 211 210 212 212 212 212 209 207 207 208 211 217 219 218 218 222 224 220 219 221 218 217 219 221 223 223 225 225 224 226 225 226 229 230 231 229 229 233 232 233 236 240 244 241 240 243 240 236 236 239 244 244 241 240 239 240 245 251 254 255 256 257 256 257 259 258 256 259 262 260 257 257 257 260 262 258 254 257 261 264 266 268 269
215 214 212 211 211 212 212 213 213 213 211 209 208 209 210 216 220 217 216 220 222 223 221 219 218 217 218 221 222 222 224 226 225 224 226 226 226 229 231 233 232 231 232 232 234 233 237 243 240 237 240 239 238 239 238 240 243 244 244 241 241 242 245 250 252 253 256 259 258 256 255 253 256 260 257 256 259 259 261 262 260 260 262 263 265 267 269 271
216 214 213 212 211 211 212 212 214 214 212 210 210 211 213 218 221 217 216 220 222 223 221 217 216 216 220 223 223 222 223 226 225 225 226 226 228 229 230 231 231 231 231 233 237 236 237 243 243 241 241 237 238 243 240 241 246 248 245 244 245 245 245 250 252 250 253 260 258 253 253 252 254 260 261 261 262 263 266 266 265 265 265 264 266 270 271 272
216 214 214 214 213 211 211 211 213 214 213 212 212 214 217 220 221 220 219 219 220 220 217 216 218 218 219 222 223 223 225 226 225 226 228 229 231 231 231 233 232 231 232 233 237 237 238 245 246 244 244 240 239 242 242 242 245 246 244 244 246 246 244 249 255 257 256 258 258 254 256 260 263 264 264 263 265 267 270 269 265 264 264 264 266 269 270 270
217 216 215 215 215 214 213 212 212 212 212 213 214 217 219 221 222 222 222 222 220 218 216 218 221 219 219 221 223 223 225 226 225 227 228 230 232 232 232 235 233 232 233 235 238 239 238 244 247 243 243 245 243 242 244 246 243 242 244 245 247 249 248 247 253 259 258 257 259 256 257 262 263 263 266 268 265 264 267 267 266 268 269 267 266 267 268 269
218 218 217 216 215 214 214 213 212 211 212 214 217 220 219 220 223 223 223 224 222 220 221 222 222 221 220 221 223 223 223 225 225 227 228 230 234 233 230 234 234 232 233 234 237 241 239 242 247 244 242 246 246 241 243 248 245 242 245 246 245 247 249 247 248 253 255 257 261 260 259 260 256 256 263 266 264 265 268 270 270 270 268 265 263 265 269 271
219 218 218 217 215 213 213 213 213 212 213 215 218 221 220 220 223 224 224 224 224 223 223 224 225 223 223 222 223 223 224 225 225 227 229 230 235 235 230 233 235 232 231 231 236 240 239 241 245 245 243 245 245 241 240 244 246 245 246 247 246 247 247 245 246 249 251 254 259 261 261 258 256 256 260 261 263 266 269 270 268 264 263 264 265 268 272 273
219 218 219 218 215 214 214 213 213 215 217 218 218 220 220 221 222 225 225 223 223 224 224 226 227 224 224 225 224 224 225 226 225 227 230 230 233 237 233 232 235 233 231 231 235 239 239 240 243 246 245 242 242 243 241 240 242 243 243 244 246 247 248 249 249 249 249 251 255 259 261 259 257 258 258 259 262 264 263 262 260 261 265 269 270 271 273 275
219 219 220 218 215 215 213 214 215 217 220 220 220 220 221 221 221 224 224 221 221 224 224 225 227 226 226 226 226 226 226 226 226 228 231 231 232 236 236 233 233 233 231 232 235 237 238 240 241 243 244 242 244 246 243 241 242 244 244 244 244 245 245 249 252 251 250 250 251 255 261 262 258 257 258 258 260 263 263 263 263 267 272 275 275 275 277 280
220 220 220 218 216 215 214 217 218 218 221 221 221 222 222 223 223 224 223 221 221 224 224 225 226 227 228 227 227 227 226 228 228 229 231 232 231 234 236 236 233 230 231 234 236 236 237 239 241 243 244 245 247 249 246 244 245 247 247 247 247 247 244 244 250 253 252 252 252 254 260 262 258 255 256 257 259 263 266 269 271 273 276 278 279 280 282 283
220 221 220 219 218 215 216 220 220 220 223 224 222 222 222 224 224 223 223 223 223 223 223 225 226 226 228 228 228 228 228 229 230 230 232 233 234 235 237 237 233 230 232 235 236 236 236 238 240 244 248 249 250 251 249 248 246 246 247 247 246 247 246 245 248 250 251 251 252 253 257 260 259 256 257 259 262 265 267 271 274 277 279 280 281 282 283 284
221 222 221 221 219 217 218 222 223 222 224 224 224 223 224 225 225 223 223 224 225 225 225 226 225 225 227 228 229 229 229 230 231 232 233 233 235 238 239 237 235 234 235 235 235 235 236 238 238 241 247 250 250 250 249 249 247 246 247 247 246 246 247 248 249 251 253 251 249 250 255 258 260 258 259 263 266 268 271 274 275 277 279 280 281 282 283 284
222 222 223 222 221 220 221 224 224 225 224 223 224 224 224 226 226 224 224 224 225 226 227 228 227 226 228 230 230 231 231 230 231 233 233 234 237 239 239 238 237 237 237 237 236 236 237 239 238 238 241 244 246 247 247 248 247 247 248 247 246 245 244 247 250 249 251 252 250 250 255 260 261 259 260 263 267 269 273 274 275 275 276 277 279 281 283 285
224 223 223 223 222 223 224 225 224 225 225 224 225 225 224 226 227 225 224 225 226 225 227 229 228 227 230 232 232 233 234 234 234 234 233 234 237 238 239 239 238 236 236 238 239 238 238 241 240 239 241 243 245 247 247 247 246 247 249 248 248 247 245 246 248 247 250 253 253 253 256 260 262 261 260 263 265 267 269 272 273 274 275 276 278 280 282 283
226 226 224 223 224 224 225 226 225 225 226 225 226 226 225 226 228 227 226 227 227 226 228 230 229 228 229 230 232 233 234 235 235 235 234 234 235 237 238 239 238 236 234 237 240 238 238 241 241 241 243 243 244 246 246 246 246 247 248 249 250 249 247 246 247 249 251 253 255 256 256 258 262 263 263 264 265 265 267 270 272 273 275 276 278 280 281 281
227 229 227 224 225 225 225 226 225 225 226 227 227 227 226 226 227 227 228 229 227 226 228 230 230 229 229 229 231 233 233 233 235 235 235 234 235 237 238 239 239 237 235 238 241 238 238 242 242 242 244 244 244 246 245 246 247 247 247 249 249 249 247 247 250 252 251 251 256 259 257 257 261 264 265 265 266 266 268 269 271 273 275 277 279 280 280 280
228 231 230 227 228 227 225 225 224 224 226 227 227 227 226 226 227 227 227 228 229 228 228 230 231 231 230 230 231 233 232 232 235 236 235 235 235 235 237 238 239 239 238 239 242 241 241 243 243 243 247 247 246 246 247 248 249 249 249 250 250 250 249 249 252 254 253 254 258 261 261 260 262 264 266 268 268 268 269 270 271 272 274 277 278 279 278 278
228 230 230 230 230 229 226 225 223 224 226 226 227 228 228 227 227 228 228 227 228 230 230 231 232 232 232 232 232 234 234 233 235 237 235 236 237 237 237 238 239 240 241 241 243 243 243 245 244 244 247 249 248 248 249 249 250 251 252 252 253 254 254 253 254 255 256 258 259 261 263 264 263 264 267 269 270 270 270 271 272 273 274 276 277 278 277 277
229 229 230 231 231 229 228 227 225 225 226 226 227 228 229 229 227 228 230 229 227 229 230 231 232 233 233 234 234 235 236 235 237 237 235 235 237 238 239 239 238 238 241 241 242 243 243 245 246 244 246 249 249 248 249 249 251 252 252 251 252 253 255 255 255 255 255 257 259 261 262 264 265 265 266 269 270 271 271 272 272 273 274 275 277 278 278 278
229 230 230 231 231 230 229 228 226 226 227 227 228 228 229 230 228 226 229 230 228 228 229 230 230 232 233 234 234 236 236 235 236 236 236 236 237 238 239 239 238 237 238 239 241 242 241 242 244 242 243 248 249 247 247 247 248 250 251 251 251 252 255 256 257 256 255 256 258 260 261 264 267 268 268 269 270 271 271 272 272 273 275 276 277 277 278 279